Date,TemperatureHighF,TemperatureAvgF,TemperatureLowF,DewpointHighF,DewpointAvgF,DewpointLowF,HumidityHigh,HumidityAvg,HumidityLow,PressureMaxIn,PressureMinIn,WindSpeedMaxMPH,WindSpeedAvgMPH,GustSpeedMaxMPH,PrecipitationSumIn
2014-1-1,34,28,19,19,14,4,65,57,47,30.20,30.00,5,2,11,0.00
2014-1-2,31,26,17,20,17,11,83,71,60,30.00,29.45,8,6,18,0.00
2014-1-3,18,14,3,11,-1,-13,78,53,31,30.27,29.42,7,4,18,0.00
2014-1-4,29,11,-4,8,-4,-16,63,52,35,30.33,30.08,6,1,13,0.00
2014-1-5,35,20,3,33,14,-6,93,77,62,30.10,29.52,3,1,6,0.01
2014-1-6,57,39,12,56,30,-14,99,73,29,29.61,29.17,17,6,45,0.37
2014-1-7,11,6,1,-14,-18,-23,35,30,26,30.19,29.62,15,8,37,0.00
2014-1-8,22,14,6,4,-5,-14,55,42,31,30.36,30.19,9,3,17,0.00
2014-1-9,35,22,14,15,8,3,70,56,37,30.42,30.25,4,1,11,0.00
2014-1-10,33,29,20,32,23,12,93,79,64,30.34,29.94,2,0,5,0.13
2014-1-11,62,48,33,61,47,32,99,96,89,29.94,29.07,14,3,31,0.69
2014-1-12,50,42,28,47,31,22,90,66,54,29.84,29.18,10,4,27,0.01
2014-1-13,55,40,24,39,30,20,89,71,49,29.89,29.62,5,1,87,0.00
2014-1-14,46,42,35,45,40,33,99,93,81,29.62,29.43,3,1,8,0.21
2014-1-15,43,36,29,42,35,28,99,97,94,29.76,29.61,3,0,5,0.01
2014-1-16,39,36,27,37,31,23,96,83,77,29.72,29.59,5,1,13,0.00
2014-1-17,44,31,20,34,24,17,89,79,58,29.74,29.61,5,1,9,0.00
2014-1-18,39,31,22,31,23,10,87,72,53,29.66,29.45,7,3,21,0.01
2014-1-19,36,28,19,23,15,8,68,59,50,29.62,29.41,13,5,24,0.00
2014-1-20,46,38,32,29,25,20,67,59,47,29.64,29.34,13,5,27,0.00
2014-1-21,32,19,11,20,10,0,80,66,45,29.74,29.58,7,4,16,0.00
2014-1-22,17,10,2,0,-11,-16,59,39,27,29.81,29.57,5,3,17,0.00
2014-1-23,22,10,-1,3,-7,-16,64,46,36,30.10,29.80,11,3,21,0.00
2014-1-24,21,12,2,-2,-6,-9,64,46,29,30.21,29.85,9,3,22,0.00
2014-1-25,25,19,10,18,7,-7,76,60,42,29.84,29.23,11,4,21,0.00
2014-1-26,24,21,12,16,4,-7,80,49,31,29.72,29.27,10,4,24,0.00
2014-1-27,42,26,18,27,9,-6,68,50,27,29.88,29.39,10,3,26,0.00
2014-1-28,20,15,11,-5,-9,-11,42,34,26,30.19,29.89,6,3,18,0.00
2014-1-29,23,14,6,2,-6,-14,65,42,26,30.10,29.92,10,4,23,0.00
2014-1-30,33,15,-1,8,-4,-15,56,42,29,30.28,29.99,6,2,11,0.00
2014-1-31,39,26,9,19,11,-5,65,54,42,30.03,29.88,6,1,12,0.00
2014-2-1,49,35,25,24,20,14,75,56,37,30.12,29.82,4,1,11,0.00
2014-2-2,56,38,23,37,29,17,86,69,45,29.88,29.70,4,1,8,0.00
2014-2-3,40,32,23,31,28,18,91,86,69,30.11,29.86,2,0,5,0.01
2014-2-4,39,26,11,28,19,6,86,75,54,30.27,30.02,3,0,6,0.07
2014-2-5,34,32,28,32,29,21,91,87,68,30.07,29.61,7,1,14,0.49
2014-2-6,31,24,19,21,14,8,76,65,52,30.26,29.96,4,1,14,0.01
2014-2-7,34,25,15,18,13,8,78,62,47,30.29,30.17,8,3,20,0.00
2014-2-8,32,23,14,13,7,0,67,50,34,30.30,30.11,6,2,11,0.01
2014-2-9,33,24,15,18,11,3,79,59,39,30.15,29.97,3,1,8,0.00
2014-2-10,31,22,9,16,6,-4,80,52,31,30.25,29.97,5,1,14,0.03
2014-2-11,28,15,1,5,-3,-10,67,46,29,30.43,30.23,4,2,14,0.00
2014-2-12,28,16,-2,10,0,-14,61,49,33,30.53,30.22,5,2,11,0.00
2014-2-13,34,30,20,31,26,10,91,85,63,30.22,29.04,13,7,29,0.86
2014-2-14,42,34,24,30,25,18,91,69,52,29.73,29.05,14,4,32,0.16
2014-2-15,38,31,24,29,24,10,87,74,50,29.77,29.53,9,2,17,0.00
2014-2-16,30,24,18,10,7,2,55,48,36,30.11,29.77,8,2,19,0.00
2014-2-17,38,23,12,13,2,-2,56,42,27,30.38,30.10,5,2,12,0.00
2014-2-18,44,29,18,33,20,4,82,68,52,30.26,29.91,13,2,30,0.09
2014-2-19,46,33,20,40,27,15,91,79,64,30.04,29.64,5,1,15,0.25
2014-2-20,54,40,24,33,27,19,83,61,37,30.22,29.96,6,2,13,0.00
2014-2-21,44,38,32,44,36,30,99,94,75,29.96,29.58,6,2,14,0.18
2014-2-22,55,40,26,33,26,21,95,63,27,30.01,29.86,15,4,24,0.00
2014-2-23,58,41,26,35,27,20,86,60,35,29.97,29.80,6,1,17,0.00
2014-2-24,42,35,24,29,16,6,68,46,28,30.05,29.78,14,5,31,0.00
2014-2-25,35,26,17,17,10,4,61,50,39,30.05,29.89,14,4,30,0.00
2014-2-26,34,23,9,23,5,-10,76,48,24,29.92,29.77,10,2,27,0.01
2014-2-27,35,18,2,12,-2,-15,63,42,25,30.09,29.59,14,4,32,0.00
2014-2-28,29,15,6,2,-11,-20,47,30,25,30.40,30.09,7,2,16,0.00
2014-3-1,43,25,5,18,6,-9,62,46,30,30.39,30.12,6,1,13,0.00
2014-3-2,43,34,27,29,22,14,83,62,47,30.12,29.95,3,1,7,0.00
2014-3-3,30,20,14,17,0,-9,67,41,32,30.31,29.97,4,0,11,0.00
2014-3-4,35,20,6,9,-1,-11,54,39,28,30.40,30.20,6,1,11,0.00
2014-3-5,43,30,19,14,9,5,63,43,26,30.39,30.15,5,2,13,0.00
2014-3-6,34,24,16,9,1,-9,55,37,26,30.60,30.38,8,3,16,0.00
2014-3-7,39,32,21,26,19,8,62,59,53,30.43,29.88,7,3,14,0.00
2014-3-8,57,44,30,34,30,24,84,60,39,29.88,29.76,8,2,34,0.00
2014-3-9,45,40,35,30,21,13,72,49,29,30.01,29.85,7,3,21,0.00
2014-3-10,54,42,34,32,24,16,70,49,40,29.93,29.58,8,3,15,0.00
2014-3-11,67,49,30,42,34,24,80,60,38,29.66,29.53,11,3,20,0.00
2014-3-12,58,48,31,54,40,19,93,77,62,29.64,28.97,9,2,25,0.13
2014-3-13,30,24,18,19,1,-6,62,37,24,30.07,29.21,8,2,24,0.00
2014-3-14,50,33,15,27,11,-7,59,40,27,30.18,29.84,12,4,25,0.00
2014-3-15,60,50,38,35,27,23,62,42,27,29.96,29.71,16,6,32,0.00
2014-3-16,43,35,29,23,10,2,53,35,26,30.17,29.96,6,3,14,0.00
2014-3-17,35,29,24,7,1,-6,34,29,25,30.10,29.97,8,4,19,0.00
2014-3-18,47,33,22,21,10,2,69,40,24,30.25,30.06,8,3,17,0.00
2014-3-19,42,35,25,41,30,16,97,82,67,30.24,29.77,10,4,21,0.53
2014-3-20,54,46,40,45,33,23,99,66,36,29.90,29.70,17,6,34,0.01
2014-3-21,54,42,29,26,21,17,66,44,25,30.01,29.89,11,4,26,0.00
2014-3-22,67,46,28,40,28,17,72,52,25,29.99,29.73,14,3,34,0.00
2014-3-23,44,37,26,29,20,6,77,50,30,30.10,29.94,5,2,15,0.00
2014-3-24,37,27,19,8,4,-1,52,38,26,30.23,30.06,7,3,21,0.00
2014-3-25,44,29,13,25,14,4,81,55,33,30.13,29.83,8,2,18,0.00
2014-3-26,36,31,24,25,10,0,80,44,26,30.21,29.72,9,4,26,0.00
2014-3-27,47,33,16,20,9,0,57,39,24,30.39,30.19,10,4,18,0.00
2014-3-28,63,46,29,54,38,19,96,76,54,30.18,29.84,14,3,27,0.04
2014-3-29,53,46,42,48,44,42,99,94,79,30.07,29.58,8,4,16,1.98
2014-3-30,47,45,40,46,44,37,99,96,88,29.60,29.40,8,4,20,0.58
2014-3-31,56,45,36,39,34,32,92,68,44,30.00,29.60,7,4,20,0.04
2014-4-1,64,47,28,41,34,23,87,63,40,30.05,29.90,6,2,11,0.00
2014-4-2,58,44,35,50,41,32,99,88,73,30.05,29.93,3,1,8,0.01
2014-4-3,69,54,37,44,36,28,99,58,25,30.05,29.91,7,2,12,0.01
2014-4-4,45,42,40,44,41,40,99,99,94,30.00,29.65,13,6,24,0.28
2014-4-5,55,46,36,49,36,25,99,73,44,30.00,29.62,13,4,33,0.01
2014-4-6,65,46,29,32,27,22,76,50,24,30.14,30.00,7,2,14,0.00
2014-4-7,53,41,29,48,37,27,99,86,56,30.13,29.60,11,3,20,0.21
2014-4-8,66,57,46,62,46,37,99,68,47,29.58,29.34,14,5,34,0.12
2014-4-9,64,50,33,44,34,27,99,58,27,29.96,29.54,7,2,21,0.00
2014-4-10,68,51,27,41,34,22,86,54,32,30.12,29.96,13,5,24,0.00
2014-4-11,79,59,41,55,47,35,97,67,34,29.98,29.88,12,3,22,0.00
2014-4-12,76,61,43,54,45,37,99,62,28,30.17,29.97,8,2,17,0.00
2014-4-13,83,65,44,62,52,36,85,65,42,30.14,29.92,14,5,27,0.00
2014-4-14,80,70,62,63,59,55,90,70,46,29.98,29.79,15,8,35,0.00
2014-4-15,68,58,35,67,56,34,99,95,82,29.87,29.45,10,5,24,1.36
2014-4-16,49,38,30,34,22,16,97,54,30,30.47,29.85,7,3,24,0.00
2014-4-17,51,40,28,35,28,20,85,62,42,30.62,30.47,8,4,18,0.00
2014-4-18,57,43,33,38,34,30,94,72,44,30.53,30.21,5,2,10,0.00
2014-4-19,68,52,34,45,33,26,99,56,24,30.28,30.13,6,2,15,0.00
2014-4-20,61,50,35,42,32,26,78,51,35,30.42,30.26,10,4,19,0.00
2014-4-21,74,52,28,42,32,24,91,54,20,30.27,29.82,7,2,15,0.00
2014-4-22,78,57,37,58,49,37,99,78,45,29.82,29.46,8,2,19,0.00
2014-4-23,61,52,43,51,40,31,80,62,47,29.82,29.47,7,4,22,0.00
2014-4-24,63,51,41,31,24,17,63,37,23,29.97,29.79,6,3,20,0.00
2014-4-25,71,53,33,43,30,17,78,44,25,29.97,29.71,8,2,21,0.01
2014-4-26,71,55,45,54,48,43,99,79,42,29.83,29.64,7,2,16,0.34
2014-4-27,60,52,40,43,38,34,85,61,45,30.07,29.83,6,2,14,0.00
2014-4-28,68,54,34,45,39,32,96,61,37,30.06,29.95,5,2,11,0.00
2014-4-29,52,47,42,44,42,40,99,85,65,30.31,30.04,13,8,32,0.07
2014-4-30,53,46,41,53,45,41,99,99,97,30.30,29.85,11,6,25,3.85
2014-5-1,80,64,51,67,56,50,99,81,44,29.85,29.65,7,2,17,0.22
2014-5-2,69,60,48,50,45,40,85,60,42,29.82,29.68,9,3,21,0.00
2014-5-3,72,57,42,54,47,40,99,73,45,29.81,29.68,9,2,30,0.03
2014-5-4,65,55,46,51,43,32,99,68,39,29.77,29.63,12,4,33,0.01
2014-5-5,69,58,46,43,35,23,73,45,23,29.86,29.76,5,2,19,0.00
2014-5-6,72,56,40,47,38,29,83,53,27,30.03,29.81,5,2,14,0.00
2014-5-7,74,57,37,51,40,32,91,57,35,30.17,30.03,7,2,16,0.00
2014-5-8,63,56,51,60,55,50,99,97,87,30.13,30.01,5,1,10,0.27
2014-5-9,66,60,55,64,59,54,99,97,91,30.11,29.91,5,2,12,0.00
2014-5-10,86,68,59,73,63,59,99,86,47,29.91,29.78,15,3,38,0.09
2014-5-11,83,69,56,64,56,50,99,66,35,30.06,29.85,7,2,20,0.01
2014-5-12,87,70,50,67,60,49,99,73,47,30.07,29.99,6,2,15,0.00
2014-5-13,72,63,52,66,53,43,99,72,45,30.21,29.97,8,3,20,0.00
2014-5-14,78,60,51,66,55,45,99,84,64,30.25,30.16,6,3,13,0.00
2014-5-15,81,68,57,75,66,57,99,93,72,30.18,30.01,7,3,18,0.00
2014-5-16,71,68,58,70,66,57,99,97,88,30.01,29.73,9,4,23,0.62
2014-5-17,72,60,48,58,50,45,99,75,44,30.09,29.79,6,1,15,0.01
2014-5-18,69,56,40,51,44,39,99,69,42,30.13,30.06,5,1,11,0.00
2014-5-19,73,57,39,54,45,38,96,67,34,30.15,30.04,6,2,17,0.00
2014-5-20,82,64,45,55,49,44,99,63,29,30.09,29.95,6,2,17,0.00
2014-5-21,76,66,59,62,58,53,93,74,56,29.98,29.83,5,2,12,0.00
2014-5-22,74,65,60,70,63,59,99,95,82,29.83,29.71,6,2,14,0.18
2014-5-23,76,64,59,62,58,52,99,84,56,29.90,29.76,4,1,12,0.35
2014-5-24,72,60,53,65,57,52,99,88,64,30.04,29.88,5,1,14,0.30
2014-5-25,85,67,49,65,55,48,99,70,31,30.05,29.99,4,1,11,0.01
2014-5-26,88,72,53,64,58,52,94,65,40,30.02,29.89,7,3,16,0.00
2014-5-27,88,75,63,71,65,57,95,71,50,29.89,29.76,7,2,19,0.00
2014-5-28,68,61,55,67,59,50,99,93,83,30.09,29.75,7,3,14,0.00
2014-5-29,70,59,52,56,50,45,86,73,55,30.17,30.09,5,3,14,0.00
2014-5-30,80,67,54,62,55,50,92,68,44,30.11,29.96,4,1,14,0.00
2014-5-31,75,64,50,56,51,46,93,65,38,30.24,30.03,8,2,18,0.00
2014-6-1,83,66,47,61,50,45,99,62,30,30.30,30.21,4,1,14,0.00
2014-6-2,86,69,49,64,56,46,91,65,46,30.22,29.99,8,3,17,0.00
2014-6-3,93,74,59,74,66,56,99,78,49,30.00,29.77,8,2,27,0.13
2014-6-4,88,76,67,70,65,57,99,71,45,29.81,29.70,4,1,10,0.00
2014-6-5,81,67,60,67,60,55,99,82,48,29.78,29.59,4,1,12,0.58
2014-6-6,79,68,58,62,56,52,87,67,49,29.92,29.76,4,1,12,0.00
2014-6-7,84,70,53,63,57,52,97,68,42,29.97,29.90,5,1,11,0.00
2014-6-8,88,74,55,68,61,54,97,67,44,29.92,29.82,6,2,14,0.00
2014-6-9,73,67,61,70,65,58,99,94,63,29.91,29.86,4,2,8,0.53
2014-6-10,81,72,65,74,69,65,99,92,78,29.95,29.86,4,2,9,0.00
2014-6-11,70,65,60,69,63,60,99,95,82,30.07,29.94,7,3,16,0.00
2014-6-12,73,66,60,71,65,22,99,98,17,30.06,29.86,6,3,16,0.01
2014-6-13,87,71,67,78,70,66,99,96,68,29.87,29.67,4,1,11,1.18
2014-6-14,77,68,59,68,61,51,99,78,57,30.01,29.74,4,1,14,0.00
2014-6-15,83,69,54,65,58,52,97,71,47,30.09,29.99,4,1,12,0.00
2014-6-16,90,73,53,68,62,53,99,72,44,30.11,30.00,5,1,11,0.00
2014-6-17,95,81,66,76,70,64,95,71,47,30.04,29.85,6,2,14,0.00
2014-6-18,92,83,73,73,70,65,90,67,44,29.94,29.78,6,2,18,0.00
2014-6-19,79,72,65,74,69,65,99,91,75,30.00,29.86,6,1,13,0.07
2014-6-20,84,71,54,64,57,52,99,64,37,29.99,29.88,3,1,11,0.00
2014-6-21,84,71,57,62,56,51,82,60,42,29.93,29.84,5,2,12,0.00
2014-6-22,83,71,58,67,61,57,96,72,51,29.99,29.87,5,2,12,0.00
2014-6-23,86,74,59,68,62,57,96,68,49,30.11,29.99,6,2,15,0.00
2014-6-24,89,75,58,67,62,56,96,67,43,30.11,29.97,8,3,17,0.00
2014-6-25,93,77,64,78,71,62,99,83,51,30.00,29.79,9,2,19,0.61
2014-6-26,86,77,68,76,70,68,99,81,60,29.94,29.78,4,1,11,0.19
2014-6-27,86,75,66,73,67,60,97,76,53,30.18,29.94,5,2,14,0.00
2014-6-28,91,76,60,69,63,58,96,67,38,30.24,30.17,4,1,11,0.00
2014-6-29,89,76,60,70,64,60,99,69,45,30.22,30.08,6,2,14,0.00
2014-6-30,90,76,60,73,66,59,96,75,51,30.10,29.91,7,2,14,0.00
2014-7-1,94,82,67,78,72,67,99,76,53,29.94,29.80,9,3,21,0.00
2014-7-2,97,82,70,82,75,70,99,82,57,29.90,29.79,8,2,24,0.81
2014-7-3,94,80,70,81,75,70,99,88,63,29.95,29.82,6,2,15,0.34
2014-7-4,75,70,65,71,64,55,99,85,58,30.02,29.90,5,2,18,0.01
2014-7-5,85,72,59,63,57,53,80,62,43,30.14,30.02,6,2,15,0.00
2014-7-6,88,74,56,66,61,54,96,66,41,30.10,29.90,9,3,21,0.00
2014-7-7,92,81,68,73,69,64,92,68,49,29.91,29.74,11,4,23,0.00
2014-7-8,94,75,69,77,72,58,99,76,49,29.89,29.41,15,4,36,0.04
2014-7-9,92,79,66,74,70,66,99,75,48,30.06,29.89,7,2,17,0.00
2014-7-10,88,75,66,71,67,64,99,79,50,30.24,30.06,6,2,15,0.00
2014-7-11,90,76,64,68,65,60,99,70,45,30.32,30.22,5,1,10,0.00
2014-7-12,92,78,62,72,66,61,97,70,44,30.33,30.23,8,2,17,0.00
2014-7-13,92,80,70,78,72,66,99,79,57,30.24,29.98,9,3,21,0.86
2014-7-14,90,77,70,80,74,70,99,92,68,30.07,29.80,4,1,14,1.31
2014-7-15,89,77,72,81,75,72,99,94,69,29.82,29.72,8,1,17,1.74
2014-7-16,86,75,65,74,67,62,99,78,52,29.89,29.74,4,1,11,0.04
2014-7-17,85,72,59,68,62,58,99,73,45,30.11,29.88,6,1,15,0.00
2014-7-18,85,71,57,65,61,56,96,73,44,30.23,30.11,3,1,9,0.00
2014-7-19,80,71,63,67,63,59,99,77,50,30.23,30.17,5,2,11,0.00
2014-7-20,82,72,64,68,65,62,97,80,61,30.17,30.09,5,2,14,0.00
2014-7-21,90,75,60,71,66,59,99,75,48,30.20,30.13,4,1,9,0.00
2014-7-22,91,79,65,75,70,64,99,76,56,30.18,29.95,7,2,15,4.00
2014-7-23,94,80,67,80,73,65,97,79,59,30.05,29.78,7,2,17,0.12
2014-7-24,83,74,67,72,65,58,99,75,49,29.93,29.81,4,1,14,0.02
2014-7-25,86,73,59,65,60,55,89,67,46,30.02,29.93,3,1,14,0.00
2014-7-26,81,74,66,72,67,63,91,80,71,29.99,29.70,5,2,10,0.00
2014-7-27,79,77,76,75,75,74,97,92,85,29.90,29.63,3,0,5,0.18
2014-7-28,86,74,67,75,68,62,99,83,55,29.69,29.50,8,3,22,0.17
2014-7-29,67,67,67,62,62,62,84,84,84,29.65,29.65,2,2,3,0.00
2014-8-18,88,76,63,64,60,57,82,58,44,29.86,29.61,6,2,16,0.00
2014-8-19,91,72,55,68,62,54,96,73,41,29.90,29.80,5,2,13,0.00
2014-8-20,90,76,66,70,66,62,96,73,47,29.98,29.88,5,2,12,0.00
2014-8-21,88,75,64,72,66,63,99,76,45,30.02,29.93,6,2,14,0.57
2014-8-22,77,70,64,71,66,63,99,89,70,30.00,29.93,5,2,13,0.18
2014-8-23,71,67,63,69,65,61,99,93,82,30.07,29.97,3,1,8,0.08
2014-8-24,82,70,59,67,62,58,99,79,48,30.10,30.05,5,1,16,0.00
2014-8-25,91,73,56,69,62,54,96,71,43,30.13,30.07,4,1,9,0.00
2014-8-26,93,76,60,70,65,58,95,72,44,30.12,30.02,4,1,9,0.00
2014-8-27,95,78,59,73,68,59,99,74,46,30.03,29.82,6,2,13,0.00
2014-8-28,80,73,62,72,59,51,86,62,44,30.03,29.82,5,2,14,0.00
2014-8-29,83,68,54,60,55,50,88,65,41,30.20,30.02,5,2,14,0.00
2014-8-30,81,69,52,68,62,51,99,79,61,30.22,30.09,6,2,12,0.00
2014-8-31,94,77,67,78,72,64,99,84,54,30.11,29.91,8,2,17,0.06
2014-9-1,93,82,72,78,74,72,99,80,56,29.97,29.86,7,2,16,0.00
2014-9-2,96,83,69,78,72,69,99,74,47,29.90,29.76,12,3,25,0.00
2014-9-3,88,77,65,70,66,62,96,71,47,30.07,29.80,5,1,12,0.00
2014-9-4,93,76,57,68,64,56,99,69,41,30.14,30.05,7,2,17,0.00
2014-9-5,92,77,64,77,72,63,99,85,58,30.13,29.96,6,1,12,0.00
2014-9-6,96,76,66,79,73,66,99,89,51,29.96,29.79,9,2,20,0.78
2014-9-7,81,70,61,66,61,56,99,76,45,30.13,29.91,4,1,11,0.00
2014-9-8,79,67,57,65,59,54,91,76,51,30.25,30.13,8,3,21,0.00
2014-9-9,76,66,58,65,61,57,96,86,68,30.22,30.08,7,2,14,0.01
2014-9-10,85,72,63,66,63,60,93,75,47,30.08,29.97,5,2,11,0.00
2014-9-11,85,73,63,74,68,61,99,86,67,29.98,29.77,9,2,17,0.00
2014-9-12,78,67,58,62,56,54,87,70,48,30.14,29.91,5,2,12,0.00
2014-9-13,69,61,53,65,58,50,99,90,79,30.13,30.04,4,1,11,0.06
2014-9-14,74,60,48,56,52,47,99,78,47,30.23,30.12,5,1,11,0.02
2014-9-15,75,60,46,53,49,43,96,71,42,30.19,30.02,4,1,11,0.00
2014-9-16,74,60,51,64,55,50,99,85,58,30.02,29.91,4,1,9,0.41
2014-9-17,76,60,47,57,50,45,96,73,43,29.98,29.79,4,1,10,0.00
2014-9-18,79,62,47,59,52,44,95,72,42,29.94,29.79,4,1,10,0.00
2014-9-19,69,58,51,54,51,47,99,78,49,30.20,29.95,7,2,15,0.00
2014-9-20,80,65,48,64,58,48,99,81,55,30.17,29.99,7,2,18,0.00
2014-9-21,82,70,63,71,66,62,99,88,64,29.99,29.54,4,1,8,0.00
2014-9-22,71,64,51,68,54,42,95,71,49,30.12,29.57,5,2,14,0.00
2014-9-23,78,58,40,53,47,40,99,70,39,30.33,30.12,4,1,10,0.00
2014-9-24,73,60,48,58,53,45,99,79,54,30.46,30.33,9,3,21,0.00
2014-9-25,64,60,55,61,58,54,99,94,78,30.38,30.14,7,3,16,0.34
2014-9-26,80,63,48,59,54,48,99,76,44,30.16,30.08,7,1,15,0.00
2014-9-27,88,67,50,64,56,48,95,72,39,30.15,30.08,5,1,10,0.00
2014-9-28,88,69,51,66,59,50,97,72,39,30.11,29.94,4,1,11,0.00
2014-9-29,81,68,57,67,62,57,99,82,55,29.94,29.83,4,1,11,0.00
2014-9-30,79,65,56,65,60,55,99,84,44,29.90,29.83,8,2,17,0.00
2014-10-1,68,63,57,62,60,57,99,91,78,30.00,29.90,6,2,15,0.00
2014-10-2,70,64,60,61,59,58,99,85,68,30.07,29.99,5,2,14,0.00
2014-10-3,76,63,55,60,57,53,99,82,55,30.04,29.76,6,2,14,0.00
2014-10-4,71,61,48,67,57,36,99,86,61,29.76,29.46,9,3,24,0.55
2014-10-5,60,49,38,44,39,34,97,70,50,29.92,29.66,8,3,21,0.00
2014-10-6,73,55,34,54,45,34,99,74,38,29.97,29.90,9,3,22,0.00
2014-10-7,74,65,56,62,57,54,96,76,53,29.96,29.80,8,3,21,0.02
2014-10-8,74,66,58,64,55,43,99,71,44,29.90,29.72,10,4,27,0.43
2014-10-9,72,57,43,49,44,41,96,65,34,29.99,29.88,10,3,24,0.00
2014-10-10,64,53,39,50,45,38,99,75,49,30.05,29.97,3,1,9,0.00
2014-10-11,54,51,42,53,50,42,99,97,86,30.10,29.94,3,1,9,0.41
2014-10-12,68,49,35,50,41,35,99,79,43,30.24,30.08,5,1,11,0.00
2014-10-13,64,55,41,61,53,41,99,94,78,30.24,30.15,4,1,8,0.00
2014-10-14,80,69,59,73,64,59,99,87,64,30.15,30.01,9,3,20,0.02
2014-10-15,79,72,68,72,70,67,99,93,78,30.00,29.73,7,3,20,0.31
2014-10-16,72,66,55,70,62,54,99,89,64,29.73,29.61,8,3,17,0.84
2014-10-17,74,62,53,60,56,51,99,82,54,29.67,29.60,8,2,21,0.00
2014-10-18,69,57,47,61,50,45,99,80,51,29.68,29.50,8,2,23,0.00
2014-10-19,55,49,36,47,38,30,83,65,43,29.99,29.67,7,3,23,0.00
2014-10-20,64,45,30,44,37,29,99,76,47,30.03,29.87,8,2,18,0.00
2014-10-21,70,55,45,56,51,43,99,87,58,29.87,29.72,4,1,9,0.02
2014-10-22,56,53,49,56,52,49,99,96,86,29.84,29.68,7,3,17,0.58
2014-10-23,55,52,50,52,49,46,99,88,80,29.73,29.64,6,4,17,0.14
2014-10-24,69,58,51,51,47,40,85,69,46,29.78,29.69,5,2,17,0.00
2014-10-25,69,56,38,50,44,35,88,64,48,29.80,29.49,8,3,20,0.00
2014-10-26,64,57,44,50,43,38,87,61,43,29.78,29.49,9,3,26,0.00
2014-10-27,66,51,40,43,40,36,91,69,41,29.95,29.78,6,2,17,0.00
2014-10-28,77,54,38,59,49,38,99,83,51,29.95,29.83,4,1,11,0.00
2014-10-29,70,53,43,63,50,43,99,89,47,29.88,29.79,8,1,97,0.05
2014-10-30,60,47,35,52,42,32,99,83,53,29.94,29.85,5,1,14,0.02
2014-10-31,51,41,28,44,36,27,99,83,65,29.97,29.69,6,1,11,0.00
2014-11-1,50,45,43,46,42,38,99,88,71,29.80,29.70,8,4,17,0.94
2014-11-2,49,43,39,39,30,22,82,60,39,30.04,29.73,10,6,30,0.00
2014-11-3,60,47,33,35,28,19,79,49,25,30.12,30.01,10,4,21,0.00
2014-11-4,70,58,44,43,36,30,67,47,23,30.12,29.97,6,2,17,0.00
2014-11-5,63,52,43,49,41,36,92,71,39,30.09,29.96,7,1,17,0.00
2014-11-6,49,47,45,49,46,40,99,97,83,30.08,29.55,4,1,8,0.41
2014-11-7,52,45,36,47,38,26,99,78,61,29.90,29.53,9,4,21,0.00
2014-11-8,50,40,28,35,30,23,87,68,51,29.97,29.84,7,2,19,0.00
2014-11-9,58,45,32,43,36,29,95,74,47,29.95,29.82,6,1,16,0.00
2014-11-10,64,43,28,45,36,26,99,78,45,30.11,29.95,5,1,12,0.00
2014-11-11,68,51,33,59,47,32,99,87,70,30.08,29.85,4,1,10,0.00
2014-11-12,66,54,39,62,49,33,99,84,57,30.04,29.83,6,1,15,0.00
2014-11-13,48,39,28,35,32,26,95,77,54,30.07,29.94,5,1,11,0.05
2014-11-14,42,35,26,35,24,16,99,67,41,30.14,29.90,6,3,17,0.11
2014-11-15,42,31,22,29,20,15,91,65,38,30.31,30.13,6,2,14,0.00
2014-11-16,42,33,21,36,27,16,94,79,66,30.35,29.85,3,0,6,0.02
2014-11-17,45,40,37,44,39,35,99,97,80,30.13,29.55,6,2,19,1.44
2014-11-18,42,28,22,36,9,-1,79,45,29,30.17,29.69,15,9,34,0.00
2014-11-19,34,26,19,13,7,1,61,45,32,30.33,30.08,11,5,24,0.00
2014-11-20,46,32,17,29,17,6,80,58,32,30.10,29.90,12,4,25,0.00
2014-11-21,37,29,19,13,8,5,61,43,27,30.55,30.10,8,4,21,0.00
2014-11-22,45,32,14,24,16,6,77,53,33,30.55,30.25,11,3,21,0.00
2014-11-23,60,45,34,38,29,23,79,55,36,30.27,30.01,5,2,11,0.00
2014-11-24,73,64,45,65,59,38,99,85,66,30.01,29.67,15,8,33,0.48
2014-11-25,65,52,37,61,40,31,88,64,46,30.26,29.84,11,4,21,0.00
2014-11-26,44,36,33,38,34,32,99,93,68,30.29,29.90,5,1,12,0.77
2014-11-27,38,34,27,36,30,21,96,87,74,30.18,29.95,4,2,11,0.34
2014-11-28,36,29,18,29,19,12,92,69,46,30.36,30.16,6,2,17,0.00
2014-11-29,33,26,15,25,18,11,87,73,62,30.45,30.30,2,0,5,0.00
2014-11-30,46,39,31,37,33,24,91,80,69,30.29,30.16,2,0,5,0.00
2014-12-1,64,44,34,53,39,29,99,84,65,30.56,30.16,5,2,15,0.08
2014-12-2,42,37,33,41,29,20,99,76,54,30.70,30.36,7,3,15,0.18
2014-12-3,45,42,39,44,40,29,99,93,67,30.36,30.06,8,4,19,0.21
2014-12-4,44,36,29,33,26,22,82,67,52,30.60,30.32,7,2,17,0.00
2014-12-5,41,34,26,38,29,18,99,80,66,30.65,30.42,5,1,11,0.23
2014-12-6,45,42,38,44,41,38,99,99,97,30.42,30.17,4,1,14,1.17
2014-12-7,45,38,28,40,22,9,99,56,28,30.71,30.29,10,5,24,0.02
2014-12-8,33,28,22,28,13,-4,80,55,26,30.76,30.40,9,5,17,0.00
2014-12-9,43,39,33,41,36,28,99,91,80,30.39,29.80,8,4,17,1.55
2014-12-10,42,37,31,37,30,23,87,76,65,29.81,29.72,9,5,24,0.00
2014-12-11,37,33,30,30,27,23,88,79,66,29.98,29.73,10,4,24,0.00
2014-12-12,39,35,32,28,25,23,83,69,61,30.11,29.96,7,3,17,0.02
2014-12-13,42,38,34,32,28,23,77,67,59,30.11,30.00,7,3,21,0.00
2014-12-14,47,41,37,36,32,30,78,71,62,30.07,29.96,6,3,15,0.00
2014-12-15,49,39,28,38,32,23,87,75,62,30.20,30.06,5,1,10,0.00
2014-12-16,51,41,28,44,38,24,99,89,74,30.18,29.92,6,1,13,0.17
2014-12-17,52,45,37,45,39,24,99,79,61,30.03,29.90,11,5,27,0.03
2014-12-18,41,36,33,28,25,22,69,62,56,30.13,29.99,9,4,18,0.00
2014-12-19,39,36,31,27,23,20,66,60,54,30.29,30.06,6,3,17,0.00
2014-12-20,33,31,30,22,21,20,72,66,61,30.40,30.26,3,1,8,0.00
2014-12-21,37,33,30,27,24,22,76,68,63,30.42,30.33,3,1,9,0.00
2014-12-22,44,37,33,43,33,27,99,85,76,30.42,30.22,5,1,9,0.00
2014-12-23,46,46,44,45,45,44,99,97,97,30.24,30.14,6,3,12,0.12
2014-12-24,52,48,45,52,47,44,99,98,97,30.19,29.50,4,0,11,0.71
2014-12-25,62,50,39,62,40,30,99,70,48,30.12,29.48,12,6,31,0.05
2014-12-26,50,38,30,35,29,25,85,71,52,30.24,30.10,9,2,17,0.00
2014-12-27,57,40,28,40,32,24,94,74,47,30.24,30.05,5,1,11,0.00
2014-12-28,54,44,33,48,38,29,97,82,66,30.05,29.85,5,2,11,0.06
2014-12-29,45,36,25,33,23,15,80,59,38,30.23,30.05,4,1,11,0.00
2014-12-30,36,28,19,19,15,9,71,59,40,30.37,30.23,5,1,12,0.00
2014-12-31,33,26,14,11,7,3,61,44,31,30.35,30.15,10,3,21,0.00
2015-1-1,40,26,13,16,10,3,73,51,31,30.15,29.94,13,5,28,0.00
2015-1-2,43,34,23,22,18,14,72,54,42,30.41,30.17,12,3,27,0.00